PulseSat

PulseSat

COSMOS 2432 (719)

Last updated on Jan. 17, 2019, 2:58 a.m. UTC

1 32276U 07052B   19016.60339449 -.00000005  00000-0  10000-3 0  9999
2 32276  65.7978  46.2922 0011788 321.3387 180.0317  2.13103794 87376
UTC
Height (km)
Latitude
Longitude
Inclination
Orbital Period

Next 30 passes for location: Hong Kong

Rise time Rise Azimuth (degrees) Set time Set Azimuth (degrees) Duration Max altitude (degrees)

No matching passes for this satellites

PulseSat

PulseSat is the new satellites software and hardware trackering solution by Pulsely.
Satellite Two Line Element Set source: US Air Force Space Command

Download PulseSat for iOS
© 2017 Pulsely Limited